Time,TemperatureF,DewpointF,PressureIn,WindDirection,WindDirectionDegrees,WindSpeedMPH,WindSpeedGustMPH,Humidity,HourlyPrecipIn,Conditions,Clouds,dailyrainin,SoftwareType,DateUTC
2013-04-04 00:11:00,50.8,47.0,30.02,West,268,0.0,0.0,85,0.00,,,0.00,weatherlink.com 1.10,2013-04-04 07:11:00,
2013-04-04 00:26:00,50.7,46.0,30.02,West,268,0.0,0.0,85,0.00,,,0.00,weatherlink.com 1.10,2013-04-04 07:26:00,
2013-04-04 00:41:00,50.6,46.0,30.02,West,268,0.0,0.0,85,0.00,,,0.00,weatherlink.com 1.10,2013-04-04 07:41:00,
2013-04-04 00:56:00,51.1,46.0,30.02,NE,44,0.0,2.0,83,0.00,,,0.00,weatherlink.com 1.10,2013-04-04 07:56:00,
2013-04-04 01:11:00,51.3,47.0,30.01,South,188,0.0,3.0,84,0.00,,,0.00,weatherlink.com 1.10,2013-04-04 08:11:00,
2013-04-04 01:26:00,50.3,47.0,30.03,East,84,1.0,5.0,87,0.00,,,0.00,weatherlink.com 1.10,2013-04-04 08:26:00,
2013-04-04 01:41:00,48.7,46.0,30.03,ENE,64,0.0,3.0,90,0.00,,,0.00,weatherlink.com 1.10,2013-04-04 08:41:00,
2013-04-04 01:56:00,47.9,46.0,30.02,ENE,65,0.0,2.0,91,0.00,,,0.00,weatherlink.com 1.10,2013-04-04 08:56:00,
2013-04-04 02:11:00,47.6,45.0,30.03,ENE,65,0.0,1.0,91,0.00,,,0.00,weatherlink.com 1.10,2013-04-04 09:11:00,
2013-04-04 02:27:00,47.4,45.0,30.02,ENE,65,0.0,2.0,92,0.02,,,0.02,weatherlink.com 1.10,2013-04-04 09:27:00,
2013-04-04 02:41:00,47.4,46.0,30.01,ENE,65,0.0,0.0,93,0.06,,,0.06,weatherlink.com 1.10,2013-04-04 09:41:00,
2013-04-04 02:56:00,47.4,46.0,30.00,ENE,65,0.0,0.0,93,0.10,,,0.10,weatherlink.com 1.10,2013-04-04 09:56:00,
2013-04-04 03:11:00,47.5,46.0,29.99,ENE,65,0.0,0.0,93,0.12,,,0.13,weatherlink.com 1.10,2013-04-04 10:11:00,
2013-04-04 03:26:00,47.5,46.0,29.99,ENE,65,0.0,0.0,94,0.14,,,0.17,weatherlink.com 1.10,2013-04-04 10:26:00,
2013-04-04 03:42:00,47.5,46.0,30.00,ENE,65,0.0,0.0,94,0.13,,,0.19,weatherlink.com 1.10,2013-04-04 10:42:00,
2013-04-04 03:57:00,47.3,46.0,30.00,NE,34,0.0,4.0,94,0.12,,,0.22,weatherlink.com 1.10,2013-04-04 10:57:00,
2013-04-04 04:12:00,47.1,46.0,30.01,NE,34,0.0,1.0,94,0.10,,,0.24,weatherlink.com 1.10,2013-04-04 11:12:00,
2013-04-04 04:27:00,46.9,45.0,30.00,NE,34,0.0,2.0,94,0.09,,,0.26,weatherlink.com 1.10,2013-04-04 11:27:00,
2013-04-04 04:42:00,46.8,45.0,30.00,NE,34,0.0,0.0,94,0.12,,,0.32,weatherlink.com 1.10,2013-04-04 11:42:00,
2013-04-04 04:57:00,46.9,45.0,30.00,NE,34,0.0,0.0,94,0.16,,,0.38,weatherlink.com 1.10,2013-04-04 11:57:00,
2013-04-04 05:12:00,47.0,45.0,30.00,NE,34,0.0,0.0,94,0.18,,,0.42,weatherlink.com 1.10,2013-04-04 12:12:00,
2013-04-04 05:27:00,47.0,46.0,30.00,NE,34,0.0,1.0,95,0.18,,,0.45,weatherlink.com 1.10,2013-04-04 12:27:00,
2013-04-04 05:42:00,47.0,46.0,29.99,NE,34,0.0,0.0,95,0.15,,,0.48,weatherlink.com 1.10,2013-04-04 12:42:00,
2013-04-04 05:57:00,47.1,46.0,29.99,NE,34,0.0,1.0,95,0.11,,,0.50,weatherlink.com 1.10,2013-04-04 12:57:00,
2013-04-04 06:12:00,47.2,46.0,29.99,NE,34,0.0,0.0,95,0.10,,,0.52,weatherlink.com 1.10,2013-04-04 13:12:00,
2013-04-04 06:27:00,47.6,46.0,29.99,NE,34,0.0,1.0,95,0.09,,,0.55,weatherlink.com 1.10,2013-04-04 13:27:00,
2013-04-04 06:42:00,47.7,46.0,30.00,NE,34,0.0,0.0,95,0.08,,,0.56,weatherlink.com 1.10,2013-04-04 13:42:00,
2013-04-04 06:57:00,48.0,47.0,30.00,NE,34,0.0,2.0,95,0.08,,,0.58,weatherlink.com 1.10,2013-04-04 13:57:00,
2013-04-04 07:12:00,48.3,47.0,30.01,NE,34,0.0,1.0,95,0.09,,,0.61,weatherlink.com 1.10,2013-04-04 14:12:00,
2013-04-04 07:27:00,48.7,47.0,30.02,East,96,0.0,1.0,95,0.05,,,0.61,weatherlink.com 1.10,2013-04-04 14:27:00,
2013-04-04 07:42:00,49.2,48.0,30.02,North,10,0.0,2.0,95,0.06,,,0.62,weatherlink.com 1.10,2013-04-04 14:42:00,
2013-04-04 07:57:00,49.6,48.0,30.02,North,10,0.0,0.0,95,0.04,,,0.62,weatherlink.com 1.10,2013-04-04 14:57:00,
2013-04-04 08:27:00,49.8,49.0,30.04,North,10,0.0,0.0,95,0.05,,,0.66,weatherlink.com 1.10,2013-04-04 15:27:00,
2013-04-04 08:42:00,50.6,49.0,30.04,NNE,12,0.0,2.0,95,0.05,,,0.67,weatherlink.com 1.10,2013-04-04 15:42:00,
2013-04-04 09:12:00,51.6,51.0,30.05,NNE,14,1.0,2.0,96,0.05,,,0.71,weatherlink.com 1.10,2013-04-04 16:12:00,
2013-04-04 09:27:00,51.7,51.0,30.05,NNE,30,1.0,2.0,96,0.06,,,0.72,weatherlink.com 1.10,2013-04-04 16:27:00,
2013-04-04 09:42:00,51.9,51.0,30.06,NNE,30,0.0,1.0,96,0.06,,,0.73,weatherlink.com 1.10,2013-04-04 16:42:00,
2013-04-04 09:57:00,52.2,51.0,30.06,NW,310,0.0,5.0,96,0.03,,,0.73,weatherlink.com 1.10,2013-04-04 16:57:00,
2013-04-04 10:12:00,52.1,51.0,30.07,NE,53,0.0,3.0,95,0.04,,,0.75,weatherlink.com 1.10,2013-04-04 17:12:00,
2013-04-04 10:27:00,52.6,52.0,30.07,WNW,288,0.0,4.0,96,0.04,,,0.76,weatherlink.com 1.10,2013-04-04 17:27:00,
2013-04-04 10:42:00,53.1,52.0,30.07,North,360,0.0,5.0,96,0.04,,,0.77,weatherlink.com 1.10,2013-04-04 17:42:00,
2013-04-04 10:57:00,53.3,52.0,30.08,WNW,286,0.0,4.0,96,0.04,,,0.77,weatherlink.com 1.10,2013-04-04 17:57:00,
2013-04-04 11:12:00,53.1,52.0,30.08,NNE,22,0.0,7.0,95,0.03,,,0.78,weatherlink.com 1.10,2013-04-04 18:12:00,
2013-04-04 11:27:00,53.2,52.0,30.08,West,273,1.0,6.0,95,0.03,,,0.79,weatherlink.com 1.10,2013-04-04 18:27:00,
2013-04-04 11:42:00,53.7,53.0,30.08,West,268,1.0,6.0,96,0.03,,,0.80,weatherlink.com 1.10,2013-04-04 18:42:00,
2013-04-04 11:57:00,54.0,53.0,30.08,NNE,30,3.0,7.0,95,0.05,,,0.82,weatherlink.com 1.10,2013-04-04 18:57:00,
2013-04-04 12:12:00,54.2,53.0,30.08,ENE,69,4.0,7.0,95,0.05,,,0.83,weatherlink.com 1.10,2013-04-04 19:12:00,
2013-04-04 12:27:00,54.4,53.0,30.08,NNE,19,0.0,6.0,95,0.06,,,0.85,weatherlink.com 1.10,2013-04-04 19:27:00,
2013-04-04 12:42:00,54.6,54.0,30.09,ENE,69,2.0,6.0,96,0.06,,,0.86,weatherlink.com 1.10,2013-04-04 19:42:00,
2013-04-04 13:12:00,54.8,54.0,30.08,NNE,23,1.0,13.0,96,0.06,,,0.89,weatherlink.com 1.10,2013-04-04 20:12:00,
2013-04-04 13:28:00,54.9,54.0,30.08,East,86,9.0,9.0,95,0.05,,,0.90,weatherlink.com 1.10,2013-04-04 20:28:00,
2013-04-04 13:43:00,54.8,53.0,30.09,NE,41,0.0,7.0,95,0.06,,,0.92,weatherlink.com 1.10,2013-04-04 20:43:00,
2013-04-04 13:57:00,54.8,53.0,30.08,East,86,0.0,3.0,95,0.06,,,0.93,weatherlink.com 1.10,2013-04-04 20:57:00,
2013-04-04 14:13:00,54.6,53.0,30.08,East,98,1.0,7.0,95,0.04,,,0.93,weatherlink.com 1.10,2013-04-04 21:13:00,
2013-04-04 14:28:00,54.8,53.0,30.09,NNE,25,1.0,3.0,95,0.04,,,0.94,weatherlink.com 1.10,2013-04-04 21:28:00,
2013-04-04 14:43:00,54.8,53.0,30.08,ENE,67,0.0,3.0,95,0.02,,,0.94,weatherlink.com 1.10,2013-04-04 21:43:00,
2013-04-04 14:58:00,54.8,53.0,30.09,North,360,3.0,3.0,95,0.01,,,0.94,weatherlink.com 1.10,2013-04-04 21:58:00,
2013-04-04 15:13:00,54.7,53.0,30.09,NW,313,0.0,3.0,95,0.01,,,0.94,weatherlink.com 1.10,2013-04-04 22:13:00,
2013-04-04 15:28:00,54.9,54.0,30.09,NE,40,0.0,4.0,95,0.00,,,0.94,weatherlink.com 1.10,2013-04-04 22:28:00,
2013-04-04 15:43:00,55.4,54.0,30.09,East,92,1.0,5.0,96,0.00,,,0.94,weatherlink.com 1.10,2013-04-04 22:43:00,
2013-04-04 15:58:00,54.7,53.0,30.09,North,355,0.0,3.0,95,0.00,,,0.94,weatherlink.com 1.10,2013-04-04 22:58:00,
2013-04-04 16:13:00,54.5,53.0,30.09,NW,311,1.0,4.0,95,0.01,,,0.95,weatherlink.com 1.10,2013-04-04 23:13:00,
2013-04-04 16:28:00,54.2,53.0,30.10,NNE,27,0.0,3.0,95,0.01,,,0.95,weatherlink.com 1.10,2013-04-04 23:28:00,
2013-04-04 16:43:00,54.1,53.0,30.09,NNE,27,0.0,2.0,95,0.01,,,0.95,weatherlink.com 1.10,2013-04-04 23:43:00,
2013-04-04 16:58:00,53.9,53.0,30.10,East,80,0.0,2.0,95,0.01,,,0.95,weatherlink.com 1.10,2013-04-04 23:58:00,
2013-04-04 17:13:00,53.7,52.0,30.09,WSW,246,4.0,4.0,95,0.00,,,0.95,weatherlink.com 1.10,2013-04-05 00:13:00,
2013-04-04 17:28:00,53.6,53.0,30.09,East,80,0.0,2.0,96,0.00,,,0.95,weatherlink.com 1.10,2013-04-05 00:28:00,
2013-04-04 17:43:00,53.5,52.0,30.09,NE,46,0.0,2.0,96,0.00,,,0.95,weatherlink.com 1.10,2013-04-05 00:43:00,
2013-04-04 17:58:00,53.5,52.0,30.09,ENE,67,0.0,2.0,96,0.01,,,0.96,weatherlink.com 1.10,2013-04-05 00:58:00,
2013-04-04 18:13:00,53.5,52.0,30.09,NNE,19,0.0,2.0,96,0.01,,,0.96,weatherlink.com 1.10,2013-04-05 01:13:00,
2013-04-04 18:28:00,53.4,52.0,30.09,ENE,57,1.0,4.0,96,0.01,,,0.96,weatherlink.com 1.10,2013-04-05 01:28:00,
2013-04-04 18:43:00,53.3,52.0,30.09,NE,38,0.0,3.0,96,0.01,,,0.96,weatherlink.com 1.10,2013-04-05 01:43:00,
2013-04-04 18:58:00,53.3,52.0,30.09,ENE,67,0.0,3.0,96,0.00,,,0.96,weatherlink.com 1.10,2013-04-05 01:58:00,
2013-04-04 19:13:00,53.2,52.0,30.09,ENE,67,1.0,4.0,96,0.00,,,0.96,weatherlink.com 1.10,2013-04-05 02:13:00,
2013-04-04 19:28:00,53.0,52.0,30.09,East,86,0.0,3.0,96,0.00,,,0.96,weatherlink.com 1.10,2013-04-05 02:28:00,
2013-04-04 19:43:00,53.0,52.0,30.09,East,86,0.0,1.0,96,0.01,,,0.97,weatherlink.com 1.10,2013-04-05 02:43:00,
2013-04-04 19:58:00,53.0,52.0,30.10,ENE,62,0.0,4.0,96,0.01,,,0.97,weatherlink.com 1.10,2013-04-05 02:58:00,
2013-04-04 20:13:00,52.8,52.0,30.09,NNE,33,0.0,3.0,96,0.02,,,0.98,weatherlink.com 1.10,2013-04-05 03:13:00,
2013-04-04 20:28:00,52.5,51.0,30.10,NNW,328,0.0,3.0,96,0.03,,,0.99,weatherlink.com 1.10,2013-04-05 03:28:00,
2013-04-04 20:43:00,52.4,51.0,30.10,ENE,75,0.0,2.0,96,0.02,,,0.99,weatherlink.com 1.10,2013-04-05 03:43:00,
2013-04-04 20:58:00,52.4,51.0,30.10,ENE,75,0.0,1.0,96,0.03,,,1.00,weatherlink.com 1.10,2013-04-05 03:58:00,
2013-04-04 21:13:00,52.5,51.0,30.11,ENE,75,0.0,0.0,96,0.02,,,1.00,weatherlink.com 1.10,2013-04-05 04:13:00,
2013-04-04 21:28:00,52.4,51.0,30.12,East,84,0.0,3.0,96,0.01,,,1.00,weatherlink.com 1.10,2013-04-05 04:28:00,
2013-04-04 21:43:00,52.2,51.0,30.12,East,81,0.0,4.0,96,0.02,,,1.01,weatherlink.com 1.10,2013-04-05 04:43:00,
2013-04-04 21:58:00,52.2,51.0,30.12,East,81,0.0,2.0,96,0.01,,,1.01,weatherlink.com 1.10,2013-04-05 04:58:00,
2013-04-04 22:28:00,52.2,51.0,30.13,East,81,0.0,0.0,96,0.02,,,1.02,weatherlink.com 1.10,2013-04-05 05:28:00,
2013-04-04 22:58:00,52.1,51.0,30.13,East,81,0.0,0.0,96,0.01,,,1.02,weatherlink.com 1.10,2013-04-05 05:58:00,
2013-04-04 23:13:00,52.1,51.0,30.13,East,81,0.0,2.0,96,0.02,,,1.03,weatherlink.com 1.10,2013-04-05 06:13:00,
2013-04-04 23:28:00,52.0,51.0,30.14,East,81,0.0,0.0,96,0.01,,,1.03,weatherlink.com 1.10,2013-04-05 06:28:00,
2013-04-04 23:43:00,51.9,51.0,30.14,East,81,0.0,0.0,96,0.01,,,1.03,weatherlink.com 1.10,2013-04-05 06:43:00,
2013-04-04 23:58:00,51.7,51.0,30.14,East,81,0.0,0.0,96,0.01,,,1.03,weatherlink.com 1.10,2013-04-05 06:58:00,